CW9585 Weather Reports


Display with metric or nautical units.
time (UTC)temp
F
wind
direction
speed
MPH
gust
MPH
rain 1hr
in
rain 24hr
in
rain mn
in
humidity
%
barometer
mb
20260906220704 79 216 4.0 8.0 0.00 0.00 0.00 45 1014.3
20260906215705 79 173 3.0 8.0 0.00 0.00 0.00 46 1014.4
20260906215204 78 210 3.0 7.0 0.00 0.00 0.00 46 1014.4
20260906214704 78 167 4.0 8.0 0.00 0.00 0.00 47 1014.5
20260906214205 77 179 4.0 8.0 0.00 0.00 0.00 46 1014.5
20260906213704 77 220 4.0 7.0 0.00 0.00 0.00 46 1014.5
20260906213204 77 239 4.0 7.0 0.00 0.00 0.00 48 1014.7
20260906212205 76 189 4.0 8.0 0.00 0.00 0.00 48 1014.7
20260906211704 75 203 5.0 8.0 0.00 0.00 0.00 47 1014.8
20260906211205 75 250 5.0 8.0 0.00 0.00 0.00 49 1014.9
20260906210704 74 181 5.0 9.0 0.00 0.00 0.00 49 1015.1
20260906210205 74 201 5.0 9.0 0.00 0.00 0.00 49 1015.1
20260906205705 74 201 6.0 9.0 0.00 0.00 0.00 51 1015.1
20260906205204 74 227 5.0 9.0 0.00 0.00 0.00 53 1015.2
20260906204705 73 200 5.0 9.0 0.00 0.00 0.00 54 1015.3
20260906204204 73 229 5.0 9.0 0.00 0.00 0.00 56 1015.4
20260906203704 73 145 5.0 9.0 0.00 0.00 0.00 56 1015.3
20260906203204 73 199 4.0 10.0 0.00 0.00 0.00 57 1015.6
20260906202704 72 221 5.0 10.0 0.00 0.00 0.00 56 1015.5
20260906202205 72 184 5.0 10.0 0.00 0.00 0.00 58 1015.6
20260906201704 72 173 4.0 9.0 0.00 0.00 0.00 59 1015.7
20260906201204 72 218 4.0 8.0 0.00 0.00 0.00 61 1015.7
20260906200704 72 229 4.0 8.0 0.00 0.00 0.00 64 1015.7
20260906200204 71 122 4.0 8.0 0.00 0.00 0.00 64 1015.7
20260906195704 71 76 4.0 8.0 0.00 0.00 0.00 65 1015.8
20260906195205 71 109 3.0 8.0 0.00 0.00 0.00 65 1015.8
20260906194705 71 107 4.0 8.0 0.00 0.00 0.00 65 1015.8
20260906194205 70 61 5.0 8.0 0.00 0.00 0.00 66 1015.8
20260906193704 70 128 4.0 8.0 0.00 0.00 0.00 66 1016.0
20260906193204 69 123 4.0 8.0 0.00 0.00 0.00 67 1016.0
20260906191204 67 188 5.0 10.0 0.00 0.00 0.00 65 1016.0
20260906190705 67 157 5.0 10.0 0.00 0.00 0.00 64 1016.1
20260906190204 67 193 5.0 10.0 0.00 0.00 0.00 64 1016.1
20260906185705 67 216 5.0 10.0 0.00 0.00 0.00 64 1016.1
20260906185204 68 215 5.0 10.0 0.00 0.00 0.00 65 1016.1
20260906184704 68 209 4.0 10.0 0.00 0.00 0.00 63 1016.1
20260906184204 69 232 3.0 8.0 0.00 0.00 0.00 61 1016.2
20260906183704 69 140 3.0 8.0 0.00 0.00 0.00 64 1016.2
20260906183204 68 159 4.0 8.0 0.00 0.00 0.00 65 1016.2
20260906182704 68 188 4.0 8.0 0.00 0.00 0.00 66 1016.1
20260906181705 67 110 5.0 9.0 0.00 0.00 0.00 68 1016.2
20260906181204 67 163 5.0 9.0 0.00 0.00 0.00 67 1016.3
20260906180704 66 121 4.0 9.0 0.00 0.00 0.00 70 1016.2
20260906180204 66 148 3.0 9.0 0.00 0.00 0.00 72 1016.2
20260906175704 66 153 3.0 7.0 0.00 0.00 0.00 72 1016.3
20260906175204 65 130 3.0 7.0 0.00 0.00 0.00 72 1016.2
20260906174705 65 214 3.0 7.0 0.00 0.00 0.00 72 1016.2
20260906174204 65 171 3.0 9.0 0.00 0.00 0.00 74 1016.3
20260906173705 64 113 4.0 9.0 0.00 0.00 0.00 75 1016.3
20260906173204 64 182 4.0 9.0 0.00 0.00 0.00 76 1016.2
20260906172705 64 108 4.0 8.0 0.00 0.00 0.00 77 1016.2
20260906172205 64 148 4.0 8.0 0.00 0.00 0.00 77 1016.2
20260906171704 64 125 4.0 8.0 0.00 0.00 0.00 78 1016.1
20260906171204 64 163 4.0 5.0 0.00 0.00 0.00 77 1016.1
20260906170704 63 111 3.0 7.0 0.00 0.00 0.00 78 1016.2
20260906165705 63 167 4.0 7.0 0.00 0.00 0.00 78 1016.1
20260906165205 63 105 4.0 7.0 0.00 0.00 0.00 78 1016.1
20260906164704 63 108 4.0 7.0 0.00 0.00 0.00 78 1016.2
20260906164205 63 108 4.0 7.0 0.00 0.00 0.00 78 1016.2
20260906163704 63 109 3.0 7.0 0.00 0.00 0.00 78 1016.1
20260906163204 62 134 3.0 7.0 0.00 0.00 0.00 78 1016.2
20260906162705 62 104 4.0 7.0 0.00 0.00 0.00 78 1016.2
20260906162205 62 85 4.0 7.0 0.00 0.00 0.00 77 1016.2
20260906161204 62 118 3.0 7.0 0.00 0.00 0.00 76 1016.2
20260906160205 62 130 2.0 5.0 0.00 0.00 0.00 76 1016.3
20260906155704 62 97 2.0 5.0 0.00 0.00 0.00 76 1016.3
20260906155204 62 125 2.0 5.0 0.00 0.00 0.00 76 1016.3
20260906154204 61 34 1.0 5.0 0.00 0.00 0.00 76 1016.2
20260906153704 60 71 0.0 4.0 0.00 0.00 0.00 77 1016.3
20260906153204 60 57 1.0 4.0 0.00 0.00 0.00 78 1016.3
20260906152204 59 355 2.0 4.0 0.00 0.00 0.00 80 1016.3
20260906151204 58 336 0.0 0.0 0.00 0.00 0.00 84 1016.3
20260906150704 57 317 0.0 0.0 0.00 0.00 0.00 84 1016.2
20260906150204 57 317 0.0 0.0 0.00 0.00 0.00 85 1016.2
20260906145703 56 317 0.0 0.0 0.00 0.00 0.00 85 1016.1
20260906145204 56 317 0.0 0.0 0.00 0.00 0.00 85 1016.0
20260906144704 55 45 0.0 0.0 0.00 0.00 0.00 85 1016.1
20260906144204 55 44 0.0 0.0 0.00 0.00 0.00 85 1016.0
20260906143704 54 334 0.0 0.0 0.00 0.00 0.00 85 1015.9
20260906142705 54 309 0.0 0.0 0.00 0.00 0.00 85 1015.8
20260906142204 54 309 0.0 0.0 0.00 0.00 0.00 85 1015.8
20260906141705 53 309 0.0 0.0 0.00 0.00 0.00 85 1015.8
20260906141204 53 309 0.0 0.0 0.00 0.00 0.00 85 1015.7
20260906140705 53 309 0.0 0.0 0.00 0.00 0.00 84 1015.7
20260906140205 53 309 0.0 0.0 0.00 0.00 0.00 84 1015.6
20260906135204 54 321 0.0 0.0 0.00 0.00 0.00 84 1015.6
20260906134705 54 321 0.0 0.0 0.00 0.00 0.00 84 1015.5
20260906134204 54 321 0.0 0.0 0.00 0.00 0.00 84 1015.4
20260906133704 54 321 0.0 0.0 0.00 0.00 0.00 84 1015.4
20260906133205 54 321 0.0 0.0 0.00 0.00 0.00 84 1015.4
20260906132704 54 321 0.0 0.0 0.00 0.00 0.00 84 1015.4
20260906132204 54 306 0.0 0.0 0.00 0.00 0.00 84 1015.3
20260906131705 54 306 0.0 0.0 0.00 0.00 0.00 84 1015.3
20260906131204 54 303 0.0 3.0 0.00 0.00 0.00 84 1015.2
20260906130704 54 315 0.0 4.0 0.00 0.00 0.00 85 1015.2
20260906125705 54 315 2.0 6.0 0.00 0.00 0.00 85 1015.1
20260906125205 54 300 2.0 6.0 0.00 0.00 0.00 85 1015.2
20260906124703 54 342 3.0 6.0 0.00 0.00 0.00 85 1015.2
20260906123205 54 302 0.0 0.0 0.00 0.00 0.00 85 1015.2
20260906122705 54 326 0.0 0.0 0.00 0.00 0.00 85 1015.1
20260906122204 54 5 0.0 0.0 0.00 0.00 0.00 85 1015.1
20260906121704 54 5 0.0 0.0 0.00 0.00 0.00 85 1015.1
20260906121205 54 5 0.0 0.0 0.00 0.00 0.00 85 1015.1
20260906120704 54 5 0.0 0.0 0.00 0.00 0.00 85 1015.0
20260906120204 54 5 0.0 0.0 0.00 0.00 0.00 84 1015.0
20260906115705 54 5 0.0 0.0 0.00 0.00 0.00 84 1015.1
20260906114205 55 5 0.0 0.0 0.00 0.00 0.00 84 1015.1
20260906113704 55 5 0.0 0.0 0.00 0.00 0.00 84 1015.1
20260906113205 55 5 0.0 0.0 0.00 0.00 0.00 84 1015.0
20260906112705 55 5 0.0 0.0 0.00 0.00 0.00 84 1015.0
20260906112204 55 5 0.0 0.0 0.00 0.00 0.00 83 1015.1
20260906111204 55 5 0.0 0.0 0.00 0.00 0.00 83 1015.1
20260906110704 55 5 0.0 0.0 0.00 0.00 0.00 83 1015.1
20260906105704 56 5 0.0 0.0 0.00 0.00 0.00 83 1015.0
20260906104704 56 5 0.0 0.0 0.00 0.00 0.00 83 1015.0
20260906104204 56 5 0.0 0.0 0.00 0.00 0.00 83 1015.0
20260906103705 56 5 0.0 0.0 0.00 0.00 0.00 83 1015.0
20260906103204 56 32 0.0 0.0 0.00 0.00 0.00 83 1015.0
20260906102704 56 32 0.0 0.0 0.00 0.00 0.00 83 1015.1
20260906102204 56 32 0.0 0.0 0.00 0.00 0.00 82 1015.1
20260906101704 56 32 0.0 0.0 0.00 0.00 0.00 83 1015.1
20260906101204 57 32 0.0 0.0 0.00 0.00 0.00 82 1015.1
20260906100704 57 32 0.0 0.0 0.00 0.00 0.00 82 1015.1
20260906100204 57 32 0.0 0.0 0.00 0.00 0.00 82 1015.1
20260906095705 57 32 0.0 0.0 0.00 0.00 0.00 82 1015.1
20260906095204 57 32 0.0 0.0 0.00 0.00 0.00 82 1015.1
20260906094705 57 32 0.0 0.0 0.00 0.00 0.00 82 1015.1
20260906093704 57 32 0.0 0.0 0.00 0.00 0.00 82 1015.2
20260906093205 58 32 0.0 0.0 0.00 0.00 0.00 82 1015.2
20260906092704 58 32 0.0 0.0 0.00 0.00 0.00 82 1015.2
20260906092204 58 349 0.0 2.0 0.00 0.00 0.00 82 1015.2
20260906091704 58 32 0.0 3.0 0.00 0.00 0.00 82 1015.1
20260906090705 58 23 1.0 3.0 0.00 0.00 0.00 82 1015.2
20260906090205 58 348 1.0 3.0 0.00 0.00 0.00 82 1015.2
20260906085204 58 22 0.0 0.0 0.00 0.00 0.00 82 1015.2
20260906084205 58 21 0.0 0.0 0.00 0.00 0.00 82 1015.3
20260906083704 59 21 0.0 0.0 0.00 0.00 0.00 82 1015.3
20260906083204 59 21 0.0 0.0 0.00 0.00 0.00 81 1015.4
20260906082705 59 21 0.0 0.0 0.00 0.00 0.00 81 1015.4
20260906082204 59 21 0.0 0.0 0.00 0.00 0.00 81 1015.4
20260906081704 59 21 0.0 0.0 0.00 0.00 0.00 81 1015.4
20260906081204 60 111 0.0 0.0 0.00 0.00 0.00 81 1015.5
20260906080704 60 111 0.0 0.0 0.00 0.00 0.00 81 1015.5
20260906080204 60 111 0.0 0.0 0.00 0.00 0.00 81 1015.5
20260906075704 60 111 0.0 0.0 0.00 0.00 0.00 81 1015.5
20260906075204 60 111 0.0 0.0 0.00 0.00 0.00 81 1015.4
20260906074705 61 111 0.0 0.0 0.00 0.00 0.00 81 1015.4
20260906074204 61 111 0.0 0.0 0.00 0.00 0.00 81 1015.4
20260906073704 61 111 0.0 0.0 0.00 0.00 0.00 81 1015.4
20260906073204 61 111 0.0 0.0 0.00 0.00 0.00 81 1015.3
20260906072705 61 111 0.0 0.0 0.00 0.00 0.00 81 1015.3
20260906072205 62 111 0.0 0.0 0.00 0.00 0.00 80 1015.2
20260906071705 62 111 0.0 0.0 0.00 0.00 0.00 80 1015.3
20260906071204 62 111 0.0 0.0 0.00 0.00 0.00 80 1015.3
20260906070705 62 111 0.0 0.0 0.00 0.00 0.00 80 1015.3
20260906070205 62 111 0.0 0.0 0.00 0.00 0.00 80 1015.3
20260906065704 62 111 0.0 0.0 0.00 0.00 0.00 80 1015.2
20260906065204 62 111 0.0 0.0 0.00 0.00 0.00 79 1015.2
20260906063704 62 111 0.0 0.0 0.00 0.00 0.00 79 1015.3
20260906063205 63 111 0.0 0.0 0.00 0.00 0.00 79 1015.2
20260906062704 63 111 0.0 0.0 0.00 0.00 0.00 79 1015.1
20260906061705 63 111 0.0 0.0 0.00 0.00 0.00 79 1015.2
20260906061205 63 111 0.0 0.0 0.00 0.00 0.00 78 1015.2
20260906060704 63 111 0.0 0.0 0.00 0.00 0.00 78 1015.2
20260906060204 63 111 0.0 0.0 0.00 0.00 0.00 78 1015.2
20260906054705 63 111 0.0 2.0 0.00 0.00 0.00 78 1015.2
20260906054204 64 111 0.0 3.0 0.00 0.00 0.00 78 1015.3
20260906053704 64 111 1.0 4.0 0.00 0.00 0.00 79 1015.2
20260906053204 64 111 1.0 4.0 0.00 0.00 0.00 78 1015.2
20260906052704 64 111 1.0 4.0 0.00 0.00 0.00 78 1015.3
20260906052205 64 125 1.0 3.0 0.00 0.00 0.00 78 1015.3
20260906051704 64 125 0.0 2.0 0.00 0.00 0.00 78 1015.4
20260906051205 64 125 0.0 2.0 0.00 0.00 0.00 78 1015.4
20260906050704 64 125 1.0 3.0 0.00 0.00 0.00 78 1015.3
20260906050204 64 125 1.0 3.0 0.00 0.00 0.00 78 1015.3
20260906045705 64 125 0.0 1.0 0.00 0.00 0.00 78 1015.3
20260906045204 64 125 0.0 2.0 0.00 0.00 0.00 78 1015.2
20260906044705 64 125 0.0 5.0 0.00 0.00 0.00 78 1015.2
20260906044204 64 125 0.0 5.0 0.00 0.00 0.00 77 1015.2
20260906043704 65 125 1.0 7.0 0.00 0.00 0.00 77 1015.2
20260906043205 65 113 2.0 7.0 0.00 0.00 0.00 77 1015.1
20260906042705 65 136 3.0 9.0 0.00 0.00 0.00 77 1015.0
20260906042205 65 113 3.0 9.0 0.00 0.00 0.00 77 1014.9
20260906041704 65 121 4.0 9.0 0.00 0.00 0.00 76 1014.9
20260906041204 65 128 4.0 8.0 0.00 0.00 0.00 76 1014.8
20260906040704 65 119 4.0 8.0 0.00 0.00 0.00 76 1014.8
20260906040204 66 119 4.0 10.0 0.00 0.00 0.00 75 1014.7
20260906035705 66 136 5.0 10.0 0.00 0.00 0.00 74 1014.6
20260906035205 66 131 4.0 10.0 0.00 0.00 0.00 73 1014.5
20260906034704 67 139 3.0 8.0 0.00 0.00 0.00 73 1014.5
20260906033704 68 111 3.0 6.0 0.00 0.00 0.00 71 1014.3
20260906033204 69 107 2.0 7.0 0.00 0.00 0.00 70 1014.2
20260906032704 69 188 2.0 7.0 0.00 0.00 0.00 67 1014.1
20260906032205 70 113 3.0 7.0 0.00 0.00 0.00 65 1013.9
20260906031704 71 137 3.0 6.0 0.00 0.00 0.00 63 1013.9
20260906031204 71 93 2.0 6.0 0.00 0.00 0.00 61 1013.7
20260906030704 72 142 1.0 6.0 0.00 0.00 0.00 58 1013.7
20260906030204 72 335 2.0 6.0 0.00 0.00 0.00 54 1013.7
20260906025704 73 336 3.0 7.0 0.00 0.00 0.00 53 1013.6
20260906025204 73 9 4.0 9.0 0.00 0.00 0.00 52 1013.5
20260906024704 73 21 4.0 9.0 0.00 0.00 0.00 52 1013.5
20260906024205 74 298 4.0 9.0 0.00 0.00 0.00 51 1013.4
20260906023704 74 304 3.0 7.0 0.00 0.00 0.00 50 1013.4
20260906023205 74 277 3.0 7.0 0.00 0.00 0.00 49 1013.3
20260906022204 75 303 4.0 7.0 0.00 0.00 0.00 47 1013.3
20260906021705 76 282 4.0 7.0 0.00 0.00 0.00 47 1013.3
20260906020705 76 277 4.0 7.0 0.00 0.00 0.00 45 1013.3
20260906020205 76 293 4.0 8.0 0.00 0.00 0.00 44 1013.2
20260906015704 77 294 4.0 10.0 0.00 0.00 0.00 43 1013.3
20260906015204 77 297 4.0 10.0 0.00 0.00 0.00 43 1013.3
20260906014705 78 319 4.0 10.0 0.00 0.00 0.00 41 1013.2
20260906014204 78 264 5.0 10.0 0.00 0.00 0.00 41 1013.2
20260906013705 79 342 5.0 10.0 0.00 0.00 0.00 40 1013.1
20260906013204 79 309 5.0 12.0 0.00 0.00 0.00 40 1013.0
20260906012704 80 320 5.0 13.0 0.00 0.00 0.00 40 1013.0
20260906012205 80 307 6.0 13.0 0.00 0.00 0.00 39 1013.0
20260906011205 81 344 5.0 13.0 0.00 0.00 0.00 40 1012.9
20260906010705 81 321 5.0 13.0 0.00 0.00 0.00 40 1013.0
20260906005704 80 227 4.0 11.0 0.00 0.00 0.00 47 1012.8
20260906005205 80 175 5.0 11.0 0.00 0.00 0.00 48 1012.8
20260906004705 80 192 5.0 11.0 0.00 0.00 0.00 46 1012.8
20260906004205 80 211 4.0 8.0 0.00 0.00 0.00 45 1012.8
20260906003704 80 269 4.0 10.0 0.00 0.00 0.00 46 1012.9
20260906003205 80 221 5.0 10.0 0.00 0.00 0.00 47 1012.9
20260906002704 80 201 6.0 10.0 0.00 0.00 0.00 47 1012.9
20260906002204 80 200 6.0 10.0 0.00 0.00 0.00 47 1013.0
20260906001705 81 209 5.0 9.0 0.00 0.00 0.00 48 1012.9
20260906001204 81 188 5.0 9.0 0.00 0.00 0.00 48 1012.9
20260905234204 82 178 4.0 9.0 0.00 0.00 0.00 44 1013.1
20260905233704 82 194 4.0 9.0 0.00 0.00 0.00 45 1013.0
20260905233205 82 215 4.0 7.0 0.00 0.00 0.00 44 1013.2
20260905232704 82 180 4.0 8.0 0.00 0.00 0.00 44 1013.1
20260905232205 82 188 4.0 8.0 0.00 0.00 0.00 44 1013.2
20260905231704 81 225 5.0 8.0 0.00 0.00 0.00 45 1013.1
20260905231204 81 157 4.0 8.0 0.00 0.00 0.00 43 1013.3
20260905230704 81 184 4.0 8.0 0.00 0.00 0.00 44 1013.4
20260905230205 81 210 4.0 8.0 0.00 0.00 0.00 43 1013.5
20260905225705 81 215 4.0 8.0 0.00 0.00 0.00 43 1013.6
20260905225204 81 193 5.0 8.0 0.00 0.00 0.00 42 1013.6
20260905224705 81 179 4.0 9.0 0.00 0.00 0.00 41 1013.7
20260905224204 81 202 5.0 9.0 0.00 0.00 0.00 41 1013.8
20260905223704 81 242 5.0 11.0 0.00 0.00 0.00 42 1013.8
20260905223204 81 239 5.0 11.0 0.00 0.00 0.00 43 1013.8
20260905222204 81 219 6.0 10.0 0.00 0.00 0.00 42 1013.8
20260905221704 81 240 5.0 11.0 0.00 0.00 0.00 42 1013.8